Location: ???????
(55.4362°N, 38.1183°E)
Time: 02:03:05
(UTC+00:00)

METEOR M2 - Pass Details

Date: 03 December 2021
Orbit: 818 x 827 km, 98.4° (Epoch: 28 January)

Event Time Altitude Azimuth Distance (km) Brightness Sun altitude
Rises 14:39:30 0° 135° (SE) 3,360 ? -13.0°
Reaches altitude 10° 14:41:58 10° 128° (SE) 2,430 ? -13.3°
Maximum altitude 14:46:55 39° 61° (ENE) 1,228 ? -14.0°
Drops below altitude 10° 14:51:53 10° 354° (N) 2,440 ? -14.6°
Sets 14:54:22 0° 347° (NNW) 3,375 ? -15.0°
